EW9581 Weather Reports


time (UTC)temp
C
wind
direction
speed
KPH
gust
KPH
rain 1hr
cm
rain 24hr
cm
rain mn
cm
humidity
%
barometer
mb
20260508010057 12 103 0.0 0.0 0.00 3.38 3.33 14 1013.4
20260508004553 12 103 0.0 0.0 0.00 3.38 3.33 14 1013.3
20260508003059 12 103 0.0 0.0 0.00 3.38 3.33 14 1013.2
20260508001545 12 103 0.0 0.0 0.00 3.38 3.33 13 1012.9
20260508000044 12 103 0.0 0.0 0.00 3.38 3.33 13 1012.7
20260507234539 12 103 0.0 0.0 0.00 3.38 3.33 13 1012.8
20260507233036 12 103 0.0 1.6 0.00 3.38 3.33 12 1012.4
20260507231530 12 103 0.0 0.0 0.00 3.38 3.33 12 1012.1
20260507230022 12 103 0.0 1.6 0.00 3.38 3.33 12 1012.0
20260507224519 12 172 0.0 3.2 0.00 3.38 3.33 12 1011.5
20260507223014 13 179 0.0 1.6 0.00 3.38 3.33 11 1012.0
20260507221505 13 164 0.0 0.0 0.00 3.38 3.33 11 1012.2
20260507220104 13 164 0.0 1.6 0.00 3.38 3.33 11 1012.3
20260507214603 13 174 0.0 1.6 0.00 3.38 3.33 11 1011.9
20260507213051 13 131 0.0 4.8 0.00 3.38 3.33 11 1011.9
20260507211602 13 153 0.0 3.2 0.00 3.38 3.33 11 1011.8
20260507210043 13 105 0.0 4.8 0.00 3.38 3.33 11 1011.8
20260507204539 13 177 0.0 4.8 0.00 3.38 3.33 11 1011.5
20260507203034 13 129 0.0 3.2 0.00 3.38 3.33 11 1011.4
20260507201532 13 94 0.0 4.8 0.00 3.38 3.33 11 1011.4
20260507200026 13 170 0.0 3.2 0.03 3.38 3.33 11 1011.6
20260507194524 13 145 0.0 3.2 0.05 3.38 3.33 11 1011.5
20260507193018 13 144 0.0 3.2 0.05 3.38 3.33 10 1011.8
20260507191513 13 133 0.0 4.8 0.08 3.38 3.33 10 1011.6
20260507190009 13 152 0.0 4.8 0.08 3.35 3.30 10 1011.6
20260507184511 13 171 0.0 6.4 0.05 3.33 3.28 9 1011.3
20260507183100 13 152 0.0 6.4 0.05 3.33 3.28 9 1011.3
20260507181555 13 179 0.0 1.6 0.03 3.30 3.25 9 1011.0
20260507180051 13 133 0.0 4.8 0.00 3.28 3.23 9 1011.2
20260507174549 13 176 0.0 6.4 0.03 3.28 3.23 9 1011.6
20260507173042 14 167 0.0 8.0 0.08 3.28 3.23 8 1011.3
20260507171538 14 149 0.0 3.2 0.10 3.28 3.23 7 1010.7
20260507170034 14 93 0.0 4.8 0.13 3.28 3.23 7 1010.6
20260507164528 14 158 0.0 6.4 0.13 3.25 3.20 7 1010.9
20260507163026 15 176 0.0 4.8 0.15 3.20 3.15 6 1010.8
20260507161519 16 148 1.6 6.4 0.18 3.17 3.12 8 1011.9
20260507160015 19 150 0.0 3.2 0.18 3.15 3.10 1 1011.3
20260507154510 19 147 0.0 0.0 0.18 3.12 3.07 1 1011.1
20260507153006 19 147 0.0 0.0 0.18 3.05 3.00 1 1010.9
20260507151501 19 147 0.0 0.0 0.18 3.00 2.92 1 1011.1
20260507150058 19 147 0.0 0.0 0.18 2.97 2.90 1 1010.9
20260507144553 19 147 0.0 0.0 0.18 2.90 2.84 1 1010.9
20260507143048 19 147 0.0 0.0 0.15 2.84 2.82 1 1010.8
20260507141544 19 147 0.0 0.0 0.13 2.82 2.77 1 1011.2
20260507140053 19 136 0.0 1.6 0.10 2.79 2.74 1 1011.2
20260507134535 19 124 0.0 3.2 0.10 2.74 2.69 1 1011.5
20260507133031 18 131 0.0 0.0 0.08 2.72 2.67 1 1011.6
20260507131535 18 129 0.0 1.6 0.05 2.69 2.64 1 1011.3
20260507130024 18 127 0.0 3.2 0.05 2.69 2.64 1 1011.3
20260507124519 18 131 0.0 0.0 0.00 2.64 2.59 1 1011.5
20260507123021 18 131 0.0 0.0 0.05 2.64 2.59 1 1011.4
20260507121510 18 131 0.0 0.0 0.15 2.64 2.59 1 1011.4
20260507120006 18 131 0.0 0.0 0.53 2.64 2.59 1 1011.8
20260507114501 18 131 0.0 3.2 1.50 2.64 2.59 1 1012.0
20260507113057 18 126 0.0 0.0 2.01 2.59 2.54 1 1012.0
20260507111553 18 126 0.0 1.6 2.13 2.49 2.44 1 1012.0
20260507110052 18 126 0.0 3.2 1.75 2.08 2.03 1 1011.8
20260507104547 18 125 0.0 0.0 0.84 1.17 1.12 1 1011.4
20260507103043 18 127 0.0 1.6 0.23 0.56 0.51 1 1011.8
20260507101557 18 127 0.0 0.0 0.03 0.36 0.30 1 1011.5
20260507100037 18 127 0.0 0.0 0.00 0.33 0.28 1 1011.6
20260507094531 18 127 0.0 0.0 0.03 0.33 0.28 1 1011.5
20260507093031 18 127 0.0 0.0 0.05 0.33 0.28 1 1011.5
20260507091546 18 127 0.0 0.0 0.05 0.33 0.28 1 1011.6
20260507090018 18 127 0.0 0.0 0.05 0.33 0.28 1 1011.6
20260507084513 18 127 0.0 3.2 0.05 0.30 0.25 1 1011.7
20260507083011 18 125 0.0 1.6 0.03 0.28 0.23 1 1012.0
20260507081505 18 115 0.0 0.0 0.03 0.28 0.23 1 1011.9
20260507080059 18 102 0.0 0.0 0.03 0.28 0.23 1 1011.8
20260507074555 18 118 0.0 1.6 0.00 0.25 0.20 1 1012.0
20260507073101 18 94 0.0 1.6 0.00 0.25 0.20 1 1012.3
20260507071546 18 94 0.0 0.0 0.00 0.25 0.20 1 1012.3
20260507070110 18 94 0.0 1.6 0.00 0.25 0.20 1 1012.6
20260507064541 18 126 0.0 3.2 0.00 0.25 0.20 1 1013.2
20260507063034 18 131 0.0 6.4 0.00 0.25 0.20 1 1013.1
20260507061533 18 136 0.0 4.8 0.05 0.25 0.20 1 1012.9
20260507060030 18 125 0.0 1.6 0.05 0.25 0.20 2 1013.0
20260507054523 18 124 0.0 0.0 0.10 0.25 0.20 4 1013.1
20260507053017 18 125 0.0 3.2 0.18 0.25 0.20 6 1013.2
20260507051516 18 120 0.0 0.0 0.13 0.20 0.15 11 1013.3
20260507050027 18 126 0.0 4.8 0.15 0.20 0.15 18 1013.1
20260507044523 19 140 0.0 12.9 0.08 0.13 0.08 25 1013.3
20260507043006 19 126 1.6 11.3 0.05 0.08 0.03 24 1014.2
20260507041504 19 131 0.0 9.7 0.05 0.08 0.03 26 1014.9
20260507040002 18 122 1.6 8.0 0.03 0.05 0.05 26 1014.3
20260507034603 18 123 0.0 0.0 0.05 0.05 0.05 34 1013.7
20260507033057 18 123 0.0 0.0 0.03 0.03 0.03 40 1013.6
20260507031554 19 123 0.0 0.0 0.03 0.03 0.03 47 1013.8
20260507030100 19 123 0.0 0.0 0.03 0.03 0.03 55 1013.5
20260507024550 19 123 0.0 0.0 0.00 0.00 0.00 61 1013.3
20260507023048 19 123 0.0 0.0 0.00 0.00 0.00 66 1013.1
20260507021602 19 123 0.0 0.0 0.00 0.00 0.00 69 1012.9
20260507020052 20 123 0.0 0.0 0.00 0.00 0.00 72 1013.0
20260507014607 20 123 0.0 0.0 0.00 0.00 0.00 73 1013.2
20260507013049 20 123 0.0 0.0 0.00 0.00 0.00 73 1013.0
20260507011546 20 123 0.0 0.0 0.00 0.00 0.00 74 1013.1